Tracking 28126 objects as of 1-Oct-2023
HD Live streaming from Space Station
objects crossing your sky now

COSMOS 839 DEB

Track COSMOS 839 DEB now!
10-day predictions


NORAD ID: 10464
Int'l Code: 1976-067AH
Perigee: 917.9 km
Apogee: 2,056.5 km
Inclination: 65.8 °
Period: 115.5 minutes
Semi major axis: 7858 km
RCS: 0.0225 m2 (small)
Launch date: July 8, 1976
Source: Commonwealth of Independent States (former USSR) (CIS)
Launch site: PLESETSK MISSILE AND SPACE COMPLEX (PKMTR)

Note: This is SATELLITE DEBRIS
Your satellite tracking list
Your tracking list is empty




NASA's NSSDC Master Catalog

Two Line Element Set (TLE):
1 10464U 76067AH  23273.28776403  .00000521  00000-0  15544-2 0  9994
2 10464  65.8355  10.0066 0724452 252.0002 132.4680 12.46295441143917
Source of the keplerian elements: AFSPC